DLH99F EDDF-LPPD

Flight info

Callsign DLH99F
Flight time N/A
Altitude 35000
Route SOBRA1F SOBRA Y180 DIK UN857 TOLVU DCT RAPOR DCT ESTOC DCT PON DCT DITAL DCT GODIX DCT DIDAK DCT KURIS DCT TERPO UN872 ERIGA UN741 AZFIC DCT LOTEE DCT PETEK DCT ERPES/M076F350 DCT LENSI DCT OMOBI
Aircraft A320/M-SDE2E3FGIJ1LORWXYZ/HB1

Departure

Time N/A
Airport Frankfurt Main Airport (EDDF)

Arrival

Time 2026-05-07 15:49
Airport João Paulo II Airport (LPPD)
Time Latitude Longitude Altitude Speed Heading
2026-05-07 14:59 38.32752 -23.15037 34846 ft 402 kts 255°
2026-05-07 15:00 38.31026 -23.21818 34854 ft 402 kts 255°
2026-05-07 15:00 38.29298 -23.28541 34855 ft 402 kts 255°
2026-05-07 15:01 38.27562 -23.35307 34862 ft 402 kts 255°
2026-05-07 15:01 38.26697 -23.38690 34709 ft 404 kts 255°
2026-05-07 15:01 38.25823 -23.42105 34124 ft 405 kts 255°
2026-05-07 15:02 38.24953 -23.45510 33481 ft 404 kts 257°
2026-05-07 15:02 38.24083 -23.48902 32801 ft 403 kts 257°
2026-05-07 15:02 38.23210 -23.52276 32133 ft 401 kts 258°
2026-05-07 15:02 38.22338 -23.55631 31481 ft 399 kts 258°
2026-05-07 15:03 38.21472 -23.58967 30846 ft 396 kts 259°
2026-05-07 15:03 38.20610 -23.62286 30244 ft 394 kts 260°
2026-05-07 15:03 38.19754 -23.65580 29586 ft 391 kts 260°
2026-05-07 15:03 38.18904 -23.68852 28873 ft 389 kts 260°
2026-05-07 15:04 38.18059 -23.72105 28182 ft 386 kts 260°
2026-05-07 15:04 38.17218 -23.75336 27479 ft 384 kts 259°
2026-05-07 15:04 38.16382 -23.78546 26817 ft 381 kts 259°
2026-05-07 15:04 38.15550 -23.81741 26167 ft 379 kts 259°
2026-05-07 15:05 38.14723 -23.84908 25540 ft 376 kts 258°
2026-05-07 15:05 38.13902 -23.88052 24918 ft 374 kts 258°
2026-05-07 15:05 38.13085 -23.91173 24314 ft 371 kts 258°
2026-05-07 15:05 38.12273 -23.94270 23727 ft 368 kts 258°
2026-05-07 15:06 38.11465 -23.97346 23091 ft 366 kts 257°
2026-05-07 15:06 38.10660 -24.00405 22409 ft 364 kts 257°
2026-05-07 15:06 38.09860 -24.03451 21731 ft 363 kts 257°
2026-05-07 15:06 38.09064 -24.06489 21081 ft 362 kts 257°
2026-05-07 15:07 38.08269 -24.09517 20424 ft 361 kts 256°
2026-05-07 15:07 38.07473 -24.12537 19790 ft 359 kts 256°
2026-05-07 15:07 38.06681 -24.15537 19184 ft 358 kts 256°
2026-05-07 15:07 38.05888 -24.18525 18582 ft 357 kts 256°
2026-05-07 15:08 38.05094 -24.21515 17977 ft 358 kts 256°
2026-05-07 15:08 38.04296 -24.24518 17302 ft 359 kts 256°
2026-05-07 15:08 38.03497 -24.27515 16639 ft 358 kts 256°
2026-05-07 15:08 38.02701 -24.30499 15993 ft 356 kts 256°
2026-05-07 15:09 38.01909 -24.33473 15361 ft 356 kts 256°
2026-05-07 15:09 38.01119 -24.36438 14742 ft 355 kts 256°
2026-05-07 15:09 38.00332 -24.39398 14125 ft 354 kts 256°
2026-05-07 15:09 37.99545 -24.42351 13514 ft 353 kts 256°
2026-05-07 15:10 37.98757 -24.45296 12848 ft 352 kts 256°
2026-05-07 15:10 37.97972 -24.48233 12201 ft 353 kts 255°
2026-05-07 15:10 37.97183 -24.51178 11556 ft 352 kts 255°
2026-05-07 15:10 37.96405 -24.54076 10942 ft 350 kts 255°
2026-05-07 15:11 37.95621 -24.56987 10330 ft 348 kts 255°
2026-05-07 15:11 37.94841 -24.59873 9726 ft 345 kts 255°
2026-05-07 15:11 37.94068 -24.62732 9156 ft 340 kts 255°
2026-05-07 15:11 37.93295 -24.65483 8980 ft 325 kts 250°
2026-05-07 15:12 37.92217 -24.67954 8778 ft 314 kts 243°
2026-05-07 15:12 37.91123 -24.70281 8606 ft 301 kts 243°
2026-05-07 15:12 37.90072 -24.72511 8451 ft 289 kts 245°
2026-05-07 15:12 37.89061 -24.74653 8285 ft 278 kts 246°
2026-05-07 15:13 37.88087 -24.76723 8156 ft 271 kts 246°
2026-05-07 15:13 37.87131 -24.78767 8006 ft 269 kts 246°
2026-05-07 15:13 37.86183 -24.80803 7841 ft 268 kts 245°
2026-05-07 15:13 37.85234 -24.82840 7692 ft 269 kts 245°
2026-05-07 15:14 37.84283 -24.84869 7543 ft 268 kts 246°
2026-05-07 15:14 37.83330 -24.86894 7401 ft 267 kts 246°
2026-05-07 15:14 37.82383 -24.88907 7238 ft 266 kts 245°
2026-05-07 15:14 37.81439 -24.90913 7101 ft 266 kts 246°
2026-05-07 15:15 37.80493 -24.92919 6965 ft 265 kts 245°
2026-05-07 15:15 37.79547 -24.94924 6813 ft 265 kts 245°
2026-05-07 15:15 37.78606 -24.96918 6665 ft 264 kts 245°
2026-05-07 15:15 37.77665 -24.98907 6518 ft 262 kts 246°
2026-05-07 15:16 37.76730 -25.00886 6375 ft 263 kts 245°
2026-05-07 15:16 37.75797 -25.02858 6237 ft 259 kts 246°
2026-05-07 15:16 37.74883 -25.04782 6074 ft 251 kts 246°
2026-05-07 15:16 37.74004 -25.06623 5936 ft 239 kts 246°
2026-05-07 15:17 37.73167 -25.08376 5769 ft 228 kts 248°
2026-05-07 15:17 37.72370 -25.10047 5613 ft 217 kts 247°
2026-05-07 15:17 37.71609 -25.11644 5459 ft 208 kts 250°
2026-05-07 15:17 37.70872 -25.13197 5306 ft 206 kts 248°
2026-05-07 15:18 37.70143 -25.14740 5146 ft 201 kts 248°
2026-05-07 15:18 37.69447 -25.16210 5036 ft 194 kts 250°
2026-05-07 15:18 37.68771 -25.17631 4961 ft 183 kts 249°
2026-05-07 15:18 37.68147 -25.18924 4958 ft 163 kts 252°
2026-05-07 15:19 37.67587 -25.20081 4940 ft 146 kts 252°
2026-05-07 15:19 37.67061 -25.21200 4961 ft 156 kts 253°
2026-05-07 15:19 37.66497 -25.22418 4956 ft 164 kts 249°
2026-05-07 15:19 37.65911 -25.23663 4954 ft 166 kts 249°
2026-05-07 15:20 37.65317 -25.24913 4954 ft 166 kts 249°
2026-05-07 15:20 37.64722 -25.26164 4953 ft 166 kts 248°
2026-05-07 15:20 37.64128 -25.27412 4962 ft 166 kts 249°
2026-05-07 15:20 37.63518 -25.28708 4966 ft 175 kts 248°
2026-05-07 15:21 37.62933 -25.30056 4963 ft 173 kts 256°
2026-05-07 15:21 37.62635 -25.31495 4963 ft 167 kts 270°
2026-05-07 15:21 37.62702 -25.32931 4755 ft 162 kts 287°
2026-05-07 15:21 37.63016 -25.34284 4523 ft 160 kts 291°
2026-05-07 15:22 37.63390 -25.35600 4285 ft 159 kts 293°
2026-05-07 15:22 37.63784 -25.36891 4054 ft 155 kts 295°
2026-05-07 15:22 37.64170 -25.38124 3828 ft 147 kts 296°
2026-05-07 15:22 37.64538 -25.39290 3662 ft 139 kts 296°
2026-05-07 15:23 37.64897 -25.40421 3620 ft 138 kts 296°
2026-05-07 15:23 37.65260 -25.41559 3616 ft 143 kts 296°
2026-05-07 15:23 37.65635 -25.42737 3617 ft 146 kts 296°
2026-05-07 15:23 37.66014 -25.43926 3615 ft 146 kts 296°
2026-05-07 15:24 37.66389 -25.45109 3610 ft 139 kts 296°
2026-05-07 15:24 37.66719 -25.46153 3630 ft 120 kts 297°
2026-05-07 15:24 37.67029 -25.47126 3618 ft 120 kts 296°
2026-05-07 15:24 37.67339 -25.48098 3578 ft 119 kts 296°
2026-05-07 15:25 37.67644 -25.49057 3468 ft 118 kts 297°
2026-05-07 15:25 37.67950 -25.50020 3334 ft 118 kts 297°
2026-05-07 15:25 37.68256 -25.50984 3187 ft 118 kts 296°
2026-05-07 15:25 37.68563 -25.51952 3024 ft 120 kts 296°
2026-05-07 15:26 37.68867 -25.52911 2878 ft 116 kts 297°
2026-05-07 15:26 37.69169 -25.53861 2727 ft 119 kts 296°
2026-05-07 15:26 37.69470 -25.54812 2559 ft 116 kts 296°
2026-05-07 15:26 37.69771 -25.55759 2401 ft 117 kts 296°
2026-05-07 15:27 37.70069 -25.56703 2242 ft 116 kts 297°
2026-05-07 15:27 37.70367 -25.57643 2089 ft 115 kts 297°
2026-05-07 15:27 37.70668 -25.58593 1913 ft 119 kts 296°
2026-05-07 15:27 37.70971 -25.59552 1764 ft 116 kts 296°
2026-05-07 15:28 37.71277 -25.60516 1608 ft 118 kts 296°
2026-05-07 15:28 37.71577 -25.61468 1437 ft 118 kts 296°
2026-05-07 15:28 37.71878 -25.62417 1259 ft 120 kts 295°
2026-05-07 15:28 37.72190 -25.63403 1087 ft 122 kts 297°
2026-05-07 15:29 37.72500 -25.64385 929 ft 123 kts 294°
2026-05-07 15:29 37.72819 -25.65397 770 ft 124 kts 295°
2026-05-07 15:29 37.73139 -25.66409 612 ft 124 kts 293°
2026-05-07 15:29 37.73455 -25.67412 454 ft 122 kts 293°
2026-05-07 15:30 37.73766 -25.68395 293 ft 119 kts 294°
2026-05-07 15:30 37.74069 -25.69343 231 ft 104 kts 296°
2026-05-07 15:30 37.74326 -25.70079 388 ft 93 kts 295°
2026-05-07 15:30 37.74595 -25.70860 1088 ft 100 kts 297°
2026-05-07 15:31 37.74837 -25.71831 1611 ft 137 kts 284°
2026-05-07 15:31 37.74699 -25.73157 2096 ft 167 kts 262°
2026-05-07 15:31 37.74014 -25.74510 2462 ft 204 kts 226°
2026-05-07 15:31 37.72632 -25.75235 2942 ft 227 kts 199°
2026-05-07 15:32 37.71058 -25.75501 3000 ft 231 kts 193°
2026-05-07 15:32 37.69438 -25.75201 3013 ft 244 kts 160°
2026-05-07 15:32 37.68136 -25.73872 3008 ft 241 kts 124°
2026-05-07 15:32 37.67298 -25.72070 3004 ft 236 kts 114°
2026-05-07 15:33 37.66625 -25.70202 3010 ft 230 kts 106°
2026-05-07 15:33 37.66281 -25.68937 3002 ft 231 kts 103°
2026-05-07 15:33 37.65774 -25.67008 3009 ft 231 kts 103°
2026-05-07 15:33 37.65273 -25.65072 3052 ft 232 kts 103°
2026-05-07 15:34 37.64760 -25.63067 3191 ft 249 kts 104°
2026-05-07 15:34 37.64232 -25.60959 3319 ft 255 kts 104°
2026-05-07 15:34 37.63696 -25.58831 3468 ft 255 kts 103°
2026-05-07 15:34 37.63163 -25.56700 3512 ft 256 kts 103°
2026-05-07 15:35 37.62627 -25.54555 3516 ft 256 kts 103°
2026-05-07 15:35 37.62090 -25.52404 3514 ft 258 kts 103°
2026-05-07 15:35 37.61779 -25.50229 3508 ft 245 kts 78°
2026-05-07 15:35 37.62293 -25.48305 3514 ft 224 kts 46°
2026-05-07 15:36 37.63305 -25.46873 3505 ft 212 kts 27°
2026-05-07 15:36 37.64588 -25.46188 3508 ft 195 kts 357°
2026-05-07 15:36 37.65827 -25.46349 3516 ft 165 kts 334°
2026-05-07 15:36 37.66708 -25.47009 3519 ft 132 kts 315°
2026-05-07 15:37 37.67289 -25.47967 3528 ft 141 kts 298°
2026-05-07 15:37 37.67655 -25.49099 3466 ft 139 kts 294°
2026-05-07 15:37 37.68004 -25.50200 3288 ft 128 kts 296°
2026-05-07 15:37 37.68321 -25.51192 3156 ft 121 kts 295°
2026-05-07 15:38 37.68633 -25.52175 2990 ft 119 kts 298°
2026-05-07 15:38 37.68935 -25.53125 2832 ft 115 kts 297°
2026-05-07 15:38 37.69236 -25.54073 2685 ft 115 kts 297°
2026-05-07 15:38 37.69533 -25.55009 2531 ft 115 kts 296°
2026-05-07 15:39 37.69833 -25.55955 2375 ft 117 kts 295°
2026-05-07 15:39 37.70131 -25.56898 2212 ft 116 kts 296°
2026-05-07 15:39 37.70428 -25.57835 2054 ft 116 kts 295°
2026-05-07 15:39 37.70733 -25.58799 1894 ft 117 kts 295°
2026-05-07 15:40 37.71035 -25.59754 1738 ft 116 kts 296°
2026-05-07 15:40 37.71330 -25.60686 1574 ft 115 kts 298°
2026-05-07 15:40 37.71625 -25.61618 1417 ft 115 kts 297°
2026-05-07 15:40 37.71935 -25.62596 1233 ft 123 kts 293°
2026-05-07 15:41 37.72249 -25.63589 1072 ft 124 kts 295°
2026-05-07 15:41 37.72567 -25.64597 910 ft 122 kts 293°
2026-05-07 15:41 37.72882 -25.65594 740 ft 123 kts 292°
2026-05-07 15:41 37.73201 -25.66602 576 ft 124 kts 293°
2026-05-07 15:42 37.73514 -25.67612 409 ft 122 kts 294°
2026-05-07 15:42 37.73818 -25.68569 225 ft 112 kts 294°
2026-05-07 15:42 37.74104 -25.69447 626 ft 102 kts 294°
2026-05-07 15:42 37.74296 -25.70319 1364 ft 115 kts 279°
2026-05-07 15:43 37.73907 -25.71373 1721 ft 165 kts 236°
2026-05-07 15:43 37.72709 -25.72070 1959 ft 210 kts 193°
2026-05-07 15:43 37.71155 -25.71742 2162 ft 250 kts 155°
2026-05-07 15:43 37.69837 -25.70149 2306 ft 276 kts 115°
2026-05-07 15:44 37.69442 -25.67978 2461 ft 247 kts 81°
2026-05-07 15:44 37.69508 -25.65824 2139 ft 247 kts 82°
2026-05-07 15:44 37.69276 -25.63637 1717 ft 257 kts 102°
2026-05-07 15:44 37.68595 -25.61552 1356 ft 250 kts 112°
2026-05-07 15:45 37.67962 -25.59597 1152 ft 236 kts 105°
2026-05-07 15:45 37.67564 -25.57659 1089 ft 224 kts 88°
2026-05-07 15:45 37.67819 -25.55830 1101 ft 199 kts 54°
2026-05-07 15:45 37.68665 -25.54740 1105 ft 156 kts
2026-05-07 15:46 37.70112 -25.55767 1056 ft 137 kts 294°
2026-05-07 15:46 37.70478 -25.56918 1000 ft 145 kts 291°
2026-05-07 15:46 37.70688 -25.58181 970 ft 152 kts 282°
2026-05-07 15:47 37.70930 -25.59524 1025 ft 156 kts 292°
2026-05-07 15:47 37.71317 -25.60752 1068 ft 146 kts 296°
2026-05-07 15:47 37.71684 -25.61905 1007 ft 139 kts 297°
2026-05-07 15:47 37.72063 -25.63012 907 ft 137 kts 297°
2026-05-07 15:48 37.72417 -25.64188 812 ft 148 kts 294°
2026-05-07 15:48 37.72787 -25.65327 666 ft 137 kts 294°
2026-05-07 15:48 37.73157 -25.66426 521 ft 134 kts 291°
2026-05-07 15:48 37.73487 -25.67533 364 ft 134 kts 292°
2026-05-07 15:49 37.73817 -25.68570 218 ft 119 kts 295°
2026-05-07 15:49 37.74089 -25.69408 219 ft 80 kts 295°
2026-05-07 15:49 37.74230 -25.69857 232 ft 31 kts 291°
2026-05-07 15:49 37.74299 -25.70069 240 ft 21 kts 292°
2026-05-07 15:50 37.74351 -25.70206 245 ft 15 kts 309°
2026-05-07 15:50 37.74413 -25.70281 251 ft 9 kts 320°
2026-05-07 15:50 37.74447 -25.70317 255 ft 4 kts 320°
2026-05-07 15:50 37.74481 -25.70352 258 ft 8 kts 322°
2026-05-07 15:51 37.74538 -25.70408 264 ft 13 kts 322°
2026-05-07 15:51 37.74606 -25.70497 272 ft 15 kts 301°
2026-05-07 15:51 37.74645 -25.70617 272 ft 14 kts 290°
2026-05-07 15:51 37.74679 -25.70729 272 ft 14 kts 290°
2026-05-07 15:52 37.74715 -25.70843 275 ft 14 kts 292°
2026-05-07 15:52 37.74752 -25.70956 272 ft 13 kts 292°
2026-05-07 15:52 37.74780 -25.71034 272 ft 7 kts 311°
2026-05-07 15:52 37.74817 -25.71010 272 ft 6 kts 32°
2026-05-07 15:53 37.74843 -25.70997 272 ft 0 kts 20°